CW6404 Weather Reports


time (UTC)temp
C
wind
direction
speed
KPH
gust
KPH
rain 1hr
cm
rain 24hr
cm
rain mn
cm
humidity
%
barometer
mb
20260507030726 18 216 0.0 0.0 0.00 0.05 0.05 83 1006.7
20260507030200 18 216 0.0 0.0 0.00 0.05 0.05 83 1006.6
20260507025705 18 216 0.0 0.0 0.00 0.05 0.05 83 1006.6
20260507025434 18 216 0.0 0.0 0.00 0.05 0.05 83 1006.7
20260507024700 18 216 0.0 0.0 0.00 0.05 0.05 83 1006.7
20260507024156 18 216 0.0 0.0 0.00 0.05 0.05 82 1006.6
20260507023653 18 216 0.0 0.0 0.00 0.05 0.05 82 1006.5
20260507023146 18 216 0.0 0.0 0.00 0.05 0.05 82 1006.7
20260507022648 18 216 0.0 0.0 0.00 0.05 0.05 82 1006.7
20260507022631 18 216 0.0 0.0 0.00 0.05 0.05 82 1006.8
20260507022247 18 216 0.0 0.0 0.00 0.05 0.05 82 1006.7
20260507021103 18 216 0.0 0.0 0.00 0.05 0.05 82 1007.0
20260507020555 18 216 0.0 0.0 0.00 0.05 0.05 81 1007.3
20260507020050 18 216 0.0 0.0 0.00 0.05 0.05 81 1007.4
20260507015539 18 216 0.0 0.0 0.00 0.05 0.05 81 1007.6
20260507015039 18 216 0.0 0.0 0.00 0.05 0.05 81 1007.7
20260507014521 18 216 0.0 0.0 0.00 0.05 0.05 80 1007.6
20260507014021 18 216 0.0 0.0 0.00 0.05 0.05 80 1007.6
20260507013520 19 216 0.0 0.0 0.00 0.05 0.05 80 1007.5
20260507013017 19 216 0.0 0.0 0.00 0.05 0.05 80 1007.3
20260507012743 19 216 0.0 0.0 0.00 0.05 0.05 79 1007.3
20260507012001 19 216 0.0 0.0 0.00 0.05 0.05 79 1007.1
20260507011454 19 216 0.0 0.0 0.00 0.05 0.05 79 1007.0
20260507010943 19 216 0.0 0.0 0.00 0.05 0.05 79 1007.2
20260507010430 19 217 0.0 0.0 0.00 0.05 0.05 79 1007.2
20260507005909 19 217 0.0 0.0 0.00 0.05 0.05 79 1007.2
20260507005408 19 217 0.0 0.0 0.00 0.05 0.05 79 1007.2
20260507004850 19 217 0.0 0.0 0.00 0.05 0.05 78 1007.2
20260507004840 20 217 0.0 0.0 0.00 0.05 0.05 78 1007.3
20260507003827 20 217 0.0 0.0 0.00 0.05 0.05 78 1007.1
20260507003301 20 217 0.0 0.0 0.00 0.05 0.05 78 1007.3
20260507002750 20 218 0.0 0.0 0.00 0.05 0.05 78 1007.4
20260507002239 20 218 0.0 0.0 0.00 0.05 0.05 77 1007.3
20260507001737 20 219 0.0 0.0 0.00 0.05 0.05 77 1007.4
20260507001505 20 218 0.0 9.7 0.00 0.05 0.05 77 1007.0
20260507001000 20 215 1.6 9.7 0.00 0.05 0.05 77 1006.9
20260507000227 20 221 1.6 6.4 0.00 0.05 0.05 76 1006.8
20260506235707 20 190 0.0 6.4 0.00 0.05 0.05 76 1006.7
20260506235200 20 163 1.6 9.7 0.00 0.05 0.05 76 1006.4
20260506234704 20 221 0.0 9.7 0.00 0.05 0.05 76 1006.5
20260506234152 20 194 0.0 1.6 0.00 0.05 0.05 75 1006.6
20260506233645 20 196 0.0 6.4 0.00 0.05 0.05 75 1006.7
20260506233144 21 190 0.0 6.4 0.00 0.05 0.05 75 1006.7
20260506232645 21 183 1.6 6.4 0.00 0.05 0.05 75 1006.7
20260506232139 21 192 3.2 16.1 0.00 0.05 0.05 75 1006.8
20260506231638 21 185 4.8 16.1 0.00 0.05 0.05 75 1006.7
20260506231137 21 253 4.8 20.9 0.00 0.05 0.05 74 1006.7
20260506230638 21 244 6.4 20.9 0.00 0.05 0.05 74 1006.9
20260506230129 21 242 6.4 19.3 0.00 0.05 0.05 74 1006.8
20260506225622 21 254 8.0 19.3 0.00 0.05 0.05 74 1006.7
20260506225352 21 290 6.4 17.7 0.00 0.05 0.05 74 1006.7
20260506224622 21 234 6.4 17.7 0.00 0.05 0.05 74 1006.7
20260506224120 21 241 8.0 20.9 0.00 0.05 0.05 73 1006.9
20260506223622 21 250 8.0 20.9 0.00 0.05 0.05 73 1006.7
20260506223343 21 206 6.4 22.5 0.00 0.05 0.05 73 1006.8
20260506222602 21 141 4.8 22.5 0.00 0.05 0.05 73 1006.7
20260506222101 21 234 4.8 11.3 0.00 0.05 0.05 73 1006.5
20260506221557 21 213 6.4 16.1 0.00 0.05 0.05 73 1006.7
20260506221328 21 250 6.4 16.1 0.00 0.05 0.05 73 1006.7
20260506220553 21 271 4.8 16.1 0.00 0.05 0.05 73 1006.7
20260506220053 21 200 6.4 19.3 0.00 0.05 0.05 72 1006.5
20260506215552 21 259 8.0 19.3 0.00 0.05 0.05 72 1006.5
20260506215049 21 249 8.0 25.7 0.00 0.05 0.05 72 1006.4
20260506214551 21 240 8.0 25.7 0.00 0.05 0.05 73 1006.4
20260506214049 21 236 6.4 20.9 0.00 0.05 0.05 72 1006.5
20260506213548 21 244 8.0 19.3 0.00 0.05 0.05 72 1006.5
20260506213044 21 217 9.7 22.5 0.00 0.05 0.05 72 1006.4
20260506212542 21 242 11.3 25.7 0.00 0.05 0.05 72 1006.4
20260506212041 21 248 11.3 25.7 0.00 0.05 0.05 72 1006.4
20260506211542 21 249 8.0 22.5 0.00 0.05 0.05 71 1006.4
20260506211258 21 227 9.7 19.3 0.00 0.05 0.05 72 1006.3
20260506211133 21 238 8.0 19.3 0.00 0.05 0.05 72 1006.2
20260506210014 21 211 8.0 25.7 0.00 0.05 0.05 72 1006.2
20260506205501 21 246 8.0 25.7 0.00 0.05 0.05 71 1006.1
20260506204959 21 242 9.7 27.4 0.00 0.05 0.05 72 1006.0
20260506204731 21 244 9.7 27.4 0.00 0.05 0.05 71 1006.0
20260506204229 21 199 6.4 19.3 0.00 0.05 0.05 71 1006.0
20260506204124 21 218 8.0 20.9 0.00 0.05 0.05 71 1005.9
20260506202955 22 180 6.4 20.9 0.00 0.05 0.05 71 1005.9
20260506202458 22 186 6.4 19.3 0.00 0.05 0.05 71 1005.7
20260506201953 21 189 8.0 22.5 0.00 0.05 0.05 72 1005.7
20260506201447 21 194 9.7 22.5 0.00 0.05 0.05 71 1005.9
20260506200937 21 265 8.0 22.5 0.00 0.05 0.05 71 1005.9
20260506200426 21 242 6.4 22.5 0.00 0.05 0.05 71 1005.8
20260506195925 21 238 6.4 30.6 0.00 0.05 0.05 72 1006.1
20260506195656 21 207 8.0 30.6 0.00 0.05 0.05 72 1006.3
20260506194921 21 248 9.7 25.7 0.00 0.05 0.05 71 1006.2
20260506194422 21 209 8.0 24.1 0.00 0.05 0.05 72 1006.2
20260506193920 21 241 8.0 24.1 0.00 0.05 0.05 72 1006.3
20260506193419 21 136 9.7 20.9 0.00 0.05 0.05 71 1006.2
20260506192920 21 224 9.7 29.0 0.00 0.05 0.05 71 1006.3
20260506192409 21 256 9.7 29.0 0.00 0.05 0.05 71 1006.3
20260506191909 21 221 9.7 22.5 0.00 0.05 0.05 71 1006.4
20260506191408 21 169 9.7 20.9 0.00 0.05 0.05 72 1006.4
20260506190908 21 240 9.7 24.1 0.00 0.05 0.05 71 1006.7
20260506190406 21 253 11.3 27.4 0.00 0.05 0.05 72 1006.7
20260506185904 21 284 11.3 27.4 0.00 0.05 0.05 72 1006.7
20260506185636 21 238 11.3 25.7 0.00 0.05 0.05 72 1006.7
20260506185133 21 191 12.9 25.7 0.00 0.05 0.05 72 1006.9
20260506184359 21 248 12.9 30.6 0.00 0.05 0.05 72 1006.7
20260506183859 20 248 12.9 30.6 0.00 0.05 0.05 73 1006.7
20260506183402 20 219 11.3 27.4 0.00 0.05 0.05 72 1006.8
20260506182859 20 267 12.9 27.4 0.00 0.05 0.05 72 1006.8
20260506182630 20 200 12.9 30.6 0.00 0.05 0.05 73 1006.7
20260506181859 20 200 11.3 35.4 0.00 0.05 0.05 73 1006.8
20260506181400 20 259 11.3 37.0 0.00 0.05 0.05 73 1007.0
20260506180900 20 264 9.7 37.0 0.00 0.05 0.05 73 1006.9
20260506180406 20 184 11.3 29.0 0.00 0.05 0.05 75 1007.2
20260506180358 20 245 12.9 29.0 0.00 0.05 0.05 74 1007.3
20260506175350 20 234 9.7 29.0 0.03 0.05 0.05 75 1007.4
20260506174846 20 200 11.3 29.0 0.03 0.05 0.05 76 1007.3
20260506174345 20 211 11.3 38.6 0.03 0.05 0.05 76 1007.3
20260506173845 20 247 11.3 38.6 0.03 0.05 0.05 77 1007.4
20260506173346 20 206 9.7 24.1 0.03 0.05 0.05 78 1007.3
20260506172843 20 198 9.7 27.4 0.03 0.05 0.05 79 1007.2
20260506172343 19 205 4.8 33.8 0.03 0.05 0.05 79 1007.2
20260506171843 19 214 4.8 33.8 0.03 0.05 0.05 80 1007.3
20260506171342 19 163 6.4 17.7 0.03 0.05 0.05 80 1007.3
20260506170840 18 182 4.8 20.9 0.03 0.05 0.05 81 1007.3
20260506170605 18 218 9.7 29.0 0.03 0.05 0.05 80 1007.6
20260506170103 18 251 11.3 29.0 0.05 0.05 0.05 80 1007.8
20260506165332 18 169 9.7 24.1 0.03 0.03 0.03 81 1007.7
20260506164832 18 205 8.0 22.5 0.03 0.03 0.03 82 1007.7
20260506164329 18 165 6.4 22.5 0.03 0.03 0.03 82 1007.8
20260506163830 18 175 8.0 22.5 0.03 0.03 0.03 82 1007.8
20260506163327 18 164 4.8 22.5 0.03 0.03 0.03 81 1007.7
20260506162828 18 169 4.8 19.3 0.03 0.03 0.03 81 1007.9
20260506162319 18 195 4.8 19.3 0.03 0.03 0.03 81 1007.9
20260506162053 18 175 6.4 19.3 0.03 0.03 0.03 81 1007.7
20260506161309 18 183 8.0 19.3 0.03 0.03 0.03 80 1007.9
20260506160806 18 199 6.4 22.5 0.03 0.03 0.03 79 1008.4
20260506160304 18 213 8.0 22.5 0.00 0.00 0.00 78 1008.4
20260506155757 19 239 6.4 20.9 0.00 0.00 0.00 76 1008.8
20260506155257 20 167 8.0 24.1 0.00 0.00 0.00 74 1008.9
20260506154757 20 214 8.0 24.1 0.00 0.00 0.00 73 1009.0
20260506154246 20 195 8.0 20.9 0.00 0.00 0.00 72 1009.0
20260506154013 20 244 6.4 20.9 0.00 0.00 0.00 72 1009.0
20260506153242 20 185 8.0 30.6 0.00 0.00 0.00 71 1008.9
20260506152741 20 191 8.0 30.6 0.00 0.00 0.00 70 1008.9
20260506152241 20 237 6.4 22.5 0.00 0.00 0.00 70 1008.9
20260506151742 20 179 6.4 22.5 0.00 0.00 0.00 70 1008.9
20260506151239 20 238 6.4 22.5 0.00 0.00 0.00 70 1009.0
20260506150738 20 228 8.0 27.4 0.00 0.00 0.00 69 1009.0
20260506150237 20 235 9.7 27.4 0.00 0.00 0.00 68 1009.0
20260506145737 21 173 11.3 27.4 0.00 0.00 0.00 65 1008.8
20260506145236 21 259 11.3 29.0 0.00 0.00 0.00 64 1009.0
20260506144735 21 232 8.0 29.0 0.00 0.00 0.00 61 1008.8
20260506144235 22 236 8.0 24.1 0.00 0.00 0.00 61 1008.9
20260506143734 22 185 6.4 24.1 0.00 0.00 0.00 61 1008.9
20260506143225 22 192 4.8 20.9 0.00 0.00 0.00 61 1009.0
20260506142955 22 263 8.0 25.7 0.00 0.00 0.00 61 1008.9
20260506142851 22 199 9.7 25.7 0.00 0.00 0.00 62 1008.9
20260506141722 21 165 6.4 24.1 0.00 0.00 0.00 62 1008.9
20260506141224 21 165 4.8 17.7 0.00 0.00 0.00 63 1008.9
20260506140724 21 188 6.4 27.4 0.00 0.00 0.00 63 1008.9
20260506140454 21 159 8.0 27.4 0.00 0.00 0.00 63 1008.8
20260506135723 21 207 8.0 27.4 0.00 0.00 0.00 63 1009.0
20260506135456 21 223 9.7 25.7 0.00 0.00 0.00 63 1008.9
20260506134724 21 194 9.7 24.1 0.00 0.00 0.00 63 1008.7
20260506134223 21 165 8.0 24.1 0.00 0.00 0.00 63 1008.6
20260506133724 21 175 8.0 20.9 0.00 0.00 0.00 64 1008.8
20260506133229 21 175 6.4 24.1 0.00 0.00 0.00 64 1008.9
20260506133222 21 211 6.4 24.1 0.00 0.00 0.00 63 1008.8
20260506132206 21 176 9.7 22.5 0.00 0.00 0.00 64 1008.7
20260506131935 21 220 9.7 30.6 0.00 0.00 0.00 64 1008.9
20260506131204 20 229 11.3 30.6 0.00 0.00 0.00 64 1008.8
20260506130702 20 166 8.0 29.0 0.00 0.00 0.00 64 1008.7
20260506130202 20 247 9.7 25.7 0.00 0.00 0.00 64 1008.9
20260506125658 20 234 8.0 25.7 0.00 0.00 0.00 64 1008.9
20260506125416 20 159 4.8 17.7 0.00 0.00 0.00 64 1009.0
20260506124643 20 212 8.0 22.5 0.00 0.00 0.00 65 1009.1
20260506124142 20 176 8.0 22.5 0.00 0.00 0.00 65 1009.2
20260506123641 20 193 6.4 22.5 0.00 0.00 0.00 65 1008.9
20260506123141 20 252 6.4 22.5 0.00 0.00 0.00 65 1009.1
20260506122911 20 175 4.8 20.9 0.00 0.00 0.00 65 1009.0
20260506122142 20 175 6.4 24.1 0.00 0.00 0.00 65 1009.1
20260506121636 20 163 8.0 37.0 0.00 0.00 0.00 65 1009.2
20260506121128 20 187 9.7 37.0 0.00 0.00 0.00 65 1009.3
20260506120627 20 232 9.7 30.6 0.00 0.00 0.00 66 1009.2
20260506120128 19 239 8.0 30.6 0.00 0.00 0.00 67 1009.1
20260506115627 19 165 6.4 27.4 0.00 0.00 0.00 68 1009.1
20260506115359 19 176 6.4 25.7 0.00 0.00 0.00 68 1009.0
20260506114627 19 166 8.0 25.7 0.00 0.00 0.00 68 1009.0
20260506114128 18 229 8.0 25.7 0.00 0.00 0.00 69 1008.8
20260506113623 18 167 8.0 25.7 0.00 0.00 0.00 69 1008.9
20260506113122 18 154 6.4 19.3 0.00 0.00 0.00 69 1008.9
20260506112627 18 169 6.4 19.3 0.00 0.00 0.00 69 1008.9
20260506112121 18 169 6.4 29.0 0.00 0.00 0.00 69 1008.8
20260506111622 18 166 6.4 29.0 0.00 0.00 0.00 70 1008.8
20260506111352 18 157 6.4 17.7 0.00 0.00 0.00 70 1008.8
20260506110620 18 201 8.0 20.9 0.00 0.00 0.00 71 1008.9
20260506110119 18 171 6.4 20.9 0.00 0.00 0.00 71 1008.9
20260506105850 18 179 6.4 24.1 0.00 0.00 0.00 71 1008.9
20260506105118 18 169 8.0 24.1 0.00 0.00 0.00 72 1008.8
20260506104620 18 176 8.0 20.9 0.00 0.00 0.00 72 1008.8
20260506104115 18 203 6.4 20.9 0.00 0.00 0.00 72 1008.8
20260506103615 18 176 8.0 20.9 0.00 0.00 0.00 72 1008.8
20260506103345 18 199 8.0 22.5 0.00 0.00 0.00 72 1008.7
20260506102846 18 181 8.0 22.5 0.00 0.00 0.00 73 1008.8
20260506102116 18 200 4.8 17.7 0.00 0.00 0.00 73 1008.8
20260506102106 18 198 6.4 22.5 0.00 0.00 0.00 73 1008.8
20260506101109 18 168 6.4 25.7 0.00 0.00 0.00 73 1008.7
20260506100837 18 185 6.4 25.7 0.00 0.00 0.00 73 1008.8
20260506100108 18 172 6.4 19.3 0.00 0.00 0.00 72 1008.8
20260506095829 18 175 8.0 20.9 0.00 0.00 0.00 72 1008.8
20260506095100 18 186 6.4 20.9 0.00 0.00 0.00 72 1008.7
20260506094557 18 165 6.4 24.1 0.00 0.00 0.00 72 1008.7
20260506094057 18 166 8.0 24.1 0.00 0.00 0.00 72 1008.7
20260506093611 18 171 6.4 20.9 0.00 0.00 0.00 72 1008.7
20260506093601 18 212 6.4 20.9 0.00 0.00 0.00 72 1008.7
20260506093221 18 165 6.4 22.5 0.00 0.00 0.00 72 1008.6
20260506092056 18 167 8.0 22.5 0.00 0.00 0.00 72 1008.7
20260506091829 18 162 6.4 19.3 0.00 0.00 0.00 72 1008.6
20260506091057 18 162 6.4 19.3 0.00 0.00 0.00 72 1008.7
20260506090555 18 211 8.0 24.1 0.00 0.00 0.00 73 1008.7
20260506090055 18 183 8.0 24.1 0.00 0.00 0.00 73 1008.6
20260506085556 18 168 9.7 22.5 0.00 0.00 0.00 73 1008.6
20260506085052 18 205 8.0 27.4 0.00 0.00 0.00 74 1008.7
20260506084553 18 165 6.4 27.4 0.00 0.00 0.00 74 1008.6
20260506084050 18 171 8.0 22.5 0.00 0.00 0.00 74 1008.7
20260506083821 18 171 6.4 22.5 0.00 0.00 0.00 74 1008.7
20260506083052 18 186 4.8 20.9 0.00 0.00 0.00 74 1008.7
20260506082545 18 163 4.8 20.9 0.00 0.00 0.00 73 1008.8
20260506082034 18 177 6.4 17.7 0.00 0.00 0.00 73 1008.9
20260506081530 18 186 6.4 17.7 0.00 0.00 0.00 73 1009.0
20260506081030 18 143 6.4 19.3 0.00 0.00 0.00 73 1009.0
20260506080530 18 229 6.4 19.3 0.00 0.00 0.00 73 1009.0
20260506073014 19 269 8.0 29.0 0.00 0.00 0.00 72 1009.0
20260506072503 19 192 9.7 30.6 0.00 0.00 0.00 72 1009.0
20260506071954 19 200 8.0 30.6 0.00 0.00 0.00 72 1009.0
20260506071454 19 195 8.0 22.5 0.00 0.00 0.00 72 1009.0
20260506070953 19 196 8.0 41.8 0.00 0.00 0.00 72 1009.0
20260506070452 19 237 8.0 41.8 0.00 0.00 0.00 71 1009.0
20260506062448 20 182 6.4 16.1 0.00 0.00 0.00 71 1009.1
20260506061946 20 167 8.0 22.5 0.00 0.00 0.00 70 1009.2
20260506061442 20 159 8.0 22.5 0.00 0.00 0.00 70 1009.1
20260506060932 20 173 8.0 24.1 0.00 0.00 0.00 70 1009.1
20260506060428 20 178 9.7 24.1 0.00 0.00 0.00 69 1009.2
20260506051357 21 167 8.0 27.4 0.00 0.00 0.00 67 1009.5
20260506050856 21 198 8.0 27.4 0.00 0.00 0.00 67 1009.6
20260506050401 21 205 9.7 22.5 0.00 0.00 0.00 67 1009.6
20260506044849 21 180 8.0 27.4 0.00 0.00 0.00 67 1009.8
20260506044343 21 186 8.0 20.9 0.00 0.00 0.00 67 1009.7
20260506043836 21 168 6.4 19.3 0.00 0.00 0.00 67 1009.7
20260506043831 21 174 4.8 19.3 0.00 0.00 0.00 67 1009.7
20260506042826 21 167 4.8 19.3 0.00 0.00 0.00 66 1009.8
20260506042329 21 173 4.8 17.7 0.00 0.00 0.00 66 1009.8
20260506041825 21 168 6.4 24.1 0.00 0.00 0.00 66 1009.8
20260506041325 21 268 6.4 24.1 0.00 0.00 0.00 66 1009.7
20260506040824 21 138 6.4 20.9 0.00 0.00 0.00 66 1009.7
20260506040325 21 180 6.4 20.9 0.00 0.00 0.00 66 1009.7
20260506035829 21 144 4.8 16.1 0.00 0.00 0.00 66 1009.6
20260506035321 21 171 3.2 16.1 0.00 0.00 0.00 66 1009.6
20260506034820 21 178 1.6 12.9 0.00 0.00 0.00 67 1009.6
20260506034320 21 166 1.6 12.9 0.00 0.00 0.00 66 1009.6
20260506033819 21 185 1.6 14.5 0.00 0.00 0.00 66 1009.6
20260506033320 21 168 1.6 16.1 0.00 0.00 0.00 66 1009.6
20260506032821 21 171 1.6 16.1 0.00 0.00 0.00 66 1009.6
20260506032321 21 153 1.6 17.7 0.00 0.00 0.00 65 1009.7
20260506031811 21 151 1.6 17.7 0.00 0.00 0.00 65 1009.6
20260506031301 21 175 0.0 11.3 0.00 0.00 0.00 64 1009.7